BREEZE-M DEB, 32029

Orbit data source: Space-Track

BREEZE-M DEB, 32029 is space debris in HEO originally from a launch on Tue, 28 Feb 2006 UTC launched from the Tyuratam Missile And Space Complex (TTMTR). Debris objects in space refer to the collection of defunct objects orbiting the Earth. Examples of debris include non-operational satellites, rocket bodies, and fragments generated from explosions, collisions, or faulty payload assembly.

Loading next visibility...
Identifier
32029, 2006-006G
Orbit
HEO
Country
Flag of CISCIS
Related business
Manufacturer
Khrunichev
Mission
Spacecraft
Bus & Motor
Unknown
Mass
Unknown
Launch date (UTC)
2006-02-28 (20 years ago)
Launch vehicle
Unknown
Launch site
Tyuratam Missile And Space Complex (TTMTR)
Object type
Payload
Rocket body
Debris
Shape & HBR
Unknown shape, 0.2 m
Radar Cross Section
Medium (>0.1 m² and <1 m²)

Expand to show TLE details & history
Last TLE update: 1 day ago

TLE from 1 day ago
0 BREEZE-M DEB
1 32029U 06006G   26162.29277392  .00000795  00000-0  61889-3 0  9992
2 32029  51.5355 129.8422 5123408  74.0222 334.9123  5.26452799368012
Epoch: 2026-06-11T07:01Z
TLE epoch observation values (Epoch: 2026-06-11T07:01:35.666Z)
Latitude
0.00001°
Longitude
124.78748°
Altitude
2,640.754 km
Speed
7.736 km/s
True Right ascension
08h 39m 17s
True Declination
0° 00' 00"
Sunlit
Object was in daylight at epoch
Visualization orbit readout
Latitude
Unknown
Longitude
Unknown
Altitude
Unknown
Speed
Unknown
Apparent Right ascension
Unknown
Apparent Declination
Unknown
Sunlit
N/A
Visualization observer readout
Local Sidereal Time
18:20:10
Azimuth
Unknown
Elevation
Unknown
Doppler factor
Unknown
Orbital elements
Apogee altitude
14,732.011 km
Perigee altitude
428.899 km
Semi-major axis
13,958.592 km
Eccentricity
0.51234
Inclination
51.5355°
RAAN
129.8422°
Arg. of periapsis
74.0222°
True anomaly
286.0221°
Mean anomaly
334.9123°
Eccentric anomaly
313.68394°
Mean motion
1.31608 °/min
Orbital period
273.54 mins
BSTAR
0.00061889
Loading maneuver chart data...
Computing Atmospheric mass density...
Loading historical data...
Loading historical data...
Loading historical data...
Loading historical data...
Loading historical data...
Loading historical data...
Loading historical data...

Documentation

Showing up to 5 results
|